Time,TemperatureF,DewpointF,PressureIn,WindDirection,WindDirectionDegrees,WindSpeedMPH,WindSpeedGustMPH,Humidity,HourlyPrecipIn,Conditions,Clouds,dailyrainin,SoftwareType,DateUTC
2013-05-07 00:03:00,57.7,48.4,30.02,WSW,237,2.0,4.0,71,0.00,,,0.00,VWS V14.01,2013-05-07 05:03:00,
2013-05-07 00:08:00,57.5,48.2,30.02,WSW,237,0.0,4.0,71,0.00,,,0.00,VWS V14.01,2013-05-07 05:08:00,
2013-05-07 00:13:00,57.4,48.1,30.01,WSW,237,0.0,4.0,71,0.00,,,0.00,VWS V14.01,2013-05-07 05:13:00,
2013-05-07 00:19:00,57.3,48.0,30.01,WSW,237,0.0,4.0,71,0.00,,,0.00,VWS V14.01,2013-05-07 05:19:00,
2013-05-07 00:24:00,57.2,47.9,30.01,WSW,237,0.0,4.0,71,0.00,,,0.00,VWS V14.01,2013-05-07 05:24:00,
2013-05-07 00:29:00,57.0,47.7,30.02,WSW,237,0.0,4.0,71,0.00,,,0.00,VWS V14.01,2013-05-07 05:29:00,
2013-05-07 00:34:00,56.9,47.6,30.02,WSW,237,0.0,0.0,71,0.00,,,0.00,VWS V14.01,2013-05-07 05:34:00,
2013-05-07 00:39:00,56.9,47.6,30.02,WSW,237,0.0,0.0,71,0.00,,,0.00,VWS V14.01,2013-05-07 05:39:00,
2013-05-07 00:44:00,56.8,47.5,30.02,WSW,237,0.0,0.0,71,0.00,,,0.00,VWS V14.01,2013-05-07 05:44:00,
2013-05-07 00:49:00,56.7,47.8,30.02,WSW,237,0.0,0.0,72,0.00,,,0.00,VWS V14.01,2013-05-07 05:49:00,
2013-05-07 00:54:00,56.6,47.7,30.02,WSW,237,0.0,0.0,72,0.00,,,0.00,VWS V14.01,2013-05-07 05:54:00,
2013-05-07 00:59:00,56.4,47.5,30.01,WSW,237,0.0,0.0,72,0.00,,,0.00,VWS V14.01,2013-05-07 05:59:00,
2013-05-07 01:04:00,56.3,47.4,30.01,WSW,237,0.0,0.0,72,0.00,,,0.00,VWS V14.01,2013-05-07 06:04:00,
2013-05-07 01:09:00,56.1,47.6,30.01,WSW,237,0.0,0.0,73,0.00,,,0.00,VWS V14.01,2013-05-07 06:09:00,
2013-05-07 01:15:00,55.9,48.5,30.01,WSW,237,0.0,0.0,76,0.00,,,0.00,VWS V14.01,2013-05-07 06:15:00,
2013-05-07 01:20:00,55.7,47.9,30.01,WSW,237,0.0,0.0,75,0.00,,,0.00,VWS V14.01,2013-05-07 06:20:00,
2013-05-07 01:25:00,55.6,47.8,30.01,WSW,237,0.0,0.0,75,0.00,,,0.00,VWS V14.01,2013-05-07 06:25:00,
2013-05-07 01:30:00,55.5,48.1,30.01,WSW,237,0.0,0.0,76,0.00,,,0.00,VWS V14.01,2013-05-07 06:30:00,
2013-05-07 01:35:00,55.5,48.1,30.01,WSW,237,0.0,0.0,76,0.00,,,0.00,VWS V14.01,2013-05-07 06:35:00,
2013-05-07 01:40:00,55.6,48.2,30.02,WSW,237,0.0,0.0,76,0.00,,,0.00,VWS V14.01,2013-05-07 06:40:00,
2013-05-07 01:46:00,55.7,48.3,30.02,WSW,237,0.0,1.0,76,0.00,,,0.00,VWS V14.01,2013-05-07 06:46:00,
2013-05-07 01:51:00,55.8,48.4,30.01,WSW,237,0.0,1.0,76,0.00,,,0.00,VWS V14.01,2013-05-07 06:51:00,
2013-05-07 01:56:00,55.9,48.1,30.01,WSW,237,0.0,1.0,75,0.00,,,0.00,VWS V14.01,2013-05-07 06:56:00,
2013-05-07 02:01:00,55.8,48.4,30.01,WSW,237,0.0,1.0,76,0.00,,,0.00,VWS V14.01,2013-05-07 07:01:00,
2013-05-07 02:06:00,55.7,48.3,30.01,WSW,237,0.0,0.0,76,0.00,,,0.00,VWS V14.01,2013-05-07 07:06:00,
2013-05-07 02:11:00,55.6,48.2,30.01,WSW,237,0.0,0.0,76,0.00,,,0.00,VWS V14.01,2013-05-07 07:11:00,
2013-05-07 02:16:00,55.4,48.3,30.01,WSW,237,0.0,0.0,77,0.00,,,0.00,VWS V14.01,2013-05-07 07:16:00,
2013-05-07 02:21:00,55.2,48.1,30.01,WSW,237,0.0,0.0,77,0.00,,,0.00,VWS V14.01,2013-05-07 07:21:00,
2013-05-07 02:26:00,55.0,47.9,30.01,WSW,237,0.0,0.0,77,0.00,,,0.00,VWS V14.01,2013-05-07 07:26:00,
2013-05-07 02:32:00,54.8,48.1,30.01,WSW,237,0.0,0.0,78,0.00,,,0.00,VWS V14.01,2013-05-07 07:32:00,
2013-05-07 02:37:00,54.6,47.9,30.01,WSW,237,0.0,1.0,78,0.00,,,0.00,VWS V14.01,2013-05-07 07:37:00,
2013-05-07 02:42:00,54.4,48.0,30.01,WSW,237,0.0,1.0,79,0.00,,,0.00,VWS V14.01,2013-05-07 07:42:00,
2013-05-07 02:47:00,54.2,47.8,30.01,WSW,237,0.0,1.0,79,0.00,,,0.00,VWS V14.01,2013-05-07 07:47:00,
2013-05-07 02:52:00,54.0,47.6,30.01,WSW,237,0.0,1.0,79,0.00,,,0.00,VWS V14.01,2013-05-07 07:52:00,
2013-05-07 02:57:00,53.8,47.8,30.01,WSW,237,0.0,1.0,80,0.00,,,0.00,VWS V14.01,2013-05-07 07:57:00,
2013-05-07 03:02:00,53.7,47.7,30.01,WSW,237,0.0,1.0,80,0.00,,,0.00,VWS V14.01,2013-05-07 08:02:00,
2013-05-07 03:07:00,53.5,47.5,30.01,WSW,237,0.0,0.0,80,0.00,,,0.00,VWS V14.01,2013-05-07 08:07:00,
2013-05-07 03:12:00,53.3,47.3,30.01,WSW,237,0.0,0.0,80,0.00,,,0.00,VWS V14.01,2013-05-07 08:12:00,
2013-05-07 03:17:00,53.1,47.4,30.01,WSW,237,0.0,0.0,81,0.00,,,0.00,VWS V14.01,2013-05-07 08:17:00,
2013-05-07 03:23:00,52.9,47.6,30.01,WSW,237,0.0,0.0,82,0.00,,,0.00,VWS V14.01,2013-05-07 08:23:00,
2013-05-07 03:28:00,52.7,47.4,30.01,WSW,237,0.0,0.0,82,0.00,,,0.00,VWS V14.01,2013-05-07 08:28:00,
2013-05-07 03:33:00,52.6,47.6,30.01,WSW,237,0.0,0.0,83,0.00,,,0.00,VWS V14.01,2013-05-07 08:33:00,
2013-05-07 03:38:00,52.4,47.4,30.00,WSW,237,0.0,0.0,83,0.00,,,0.00,VWS V14.01,2013-05-07 08:38:00,
2013-05-07 03:43:00,52.3,47.3,30.01,WSW,237,0.0,0.0,83,0.00,,,0.00,VWS V14.01,2013-05-07 08:43:00,
2013-05-07 03:48:00,52.2,47.2,30.00,WSW,237,0.0,0.0,83,0.00,,,0.00,VWS V14.01,2013-05-07 08:48:00,
2013-05-07 03:53:00,52.1,47.4,30.00,WSW,237,0.0,0.0,84,0.00,,,0.00,VWS V14.01,2013-05-07 08:53:00,
2013-05-07 03:58:00,52.0,47.0,30.01,WSW,237,0.0,0.0,83,0.00,,,0.00,VWS V14.01,2013-05-07 08:58:00,
2013-05-07 04:03:00,51.9,47.2,30.01,WSW,237,0.0,0.0,84,0.00,,,0.00,VWS V14.01,2013-05-07 09:03:00,
2013-05-07 04:08:00,51.7,47.3,30.01,WSW,237,0.0,0.0,85,0.00,,,0.00,VWS V14.01,2013-05-07 09:08:00,
2013-05-07 04:13:00,51.6,47.2,30.01,WSW,237,0.0,0.0,85,0.00,,,0.00,VWS V14.01,2013-05-07 09:13:00,
2013-05-07 04:19:00,51.5,47.5,30.01,WSW,237,0.0,0.0,86,0.00,,,0.00,VWS V14.01,2013-05-07 09:19:00,
2013-05-07 04:24:00,51.4,47.4,30.01,WSW,237,0.0,0.0,86,0.00,,,0.00,VWS V14.01,2013-05-07 09:24:00,
2013-05-07 04:29:00,51.2,47.2,30.01,WSW,237,0.0,0.0,86,0.00,,,0.00,VWS V14.01,2013-05-07 09:29:00,
2013-05-07 04:34:00,51.1,47.4,30.01,WSW,237,0.0,0.0,87,0.00,,,0.00,VWS V14.01,2013-05-07 09:34:00,
2013-05-07 04:39:00,51.0,47.3,30.01,WSW,237,0.0,0.0,87,0.00,,,0.00,VWS V14.01,2013-05-07 09:39:00,
2013-05-07 04:44:00,50.9,47.2,30.02,WSW,237,0.0,0.0,87,0.00,,,0.00,VWS V14.01,2013-05-07 09:44:00,
2013-05-07 04:49:00,50.7,47.0,30.02,WSW,237,0.0,0.0,87,0.00,,,0.00,VWS V14.01,2013-05-07 09:49:00,
2013-05-07 04:54:00,50.6,46.9,30.02,WSW,237,0.0,0.0,87,0.00,,,0.00,VWS V14.01,2013-05-07 09:54:00,
2013-05-07 04:59:00,50.5,46.8,30.02,WSW,237,0.0,0.0,87,0.00,,,0.00,VWS V14.01,2013-05-07 09:59:00,
2013-05-07 05:04:00,50.3,46.9,30.02,WSW,237,0.0,0.0,88,0.00,,,0.00,VWS V14.01,2013-05-07 10:04:00,
2013-05-07 05:10:00,50.3,46.9,30.02,WSW,237,0.0,0.0,88,0.00,,,0.00,VWS V14.01,2013-05-07 10:10:00,
2013-05-07 05:15:00,50.3,46.9,30.02,WSW,237,0.0,0.0,88,0.00,,,0.00,VWS V14.01,2013-05-07 10:15:00,
2013-05-07 05:20:00,50.2,46.8,30.02,WSW,237,0.0,0.0,88,0.00,,,0.00,VWS V14.01,2013-05-07 10:20:00,
2013-05-07 05:25:00,50.1,46.7,30.02,WSW,237,0.0,0.0,88,0.00,,,0.00,VWS V14.01,2013-05-07 10:25:00,
2013-05-07 05:30:00,50.0,46.6,30.02,WSW,237,0.0,0.0,88,0.00,,,0.00,VWS V14.01,2013-05-07 10:30:00,
2013-05-07 05:35:00,49.9,46.5,30.02,WSW,237,0.0,0.0,88,0.00,,,0.00,VWS V14.01,2013-05-07 10:35:00,
2013-05-07 05:40:00,49.8,46.4,30.02,WSW,237,0.0,0.0,88,0.00,,,0.00,VWS V14.01,2013-05-07 10:40:00,
2013-05-07 05:45:00,49.7,46.6,30.02,WSW,237,0.0,0.0,89,0.00,,,0.00,VWS V14.01,2013-05-07 10:45:00,
2013-05-07 05:50:00,49.6,46.5,30.02,WSW,237,0.0,0.0,89,0.00,,,0.00,VWS V14.01,2013-05-07 10:50:00,
2013-05-07 05:55:00,49.5,46.7,30.02,WSW,237,0.0,0.0,90,0.00,,,0.00,VWS V14.01,2013-05-07 10:55:00,
2013-05-07 06:00:00,49.5,46.7,30.02,WSW,237,0.0,0.0,90,0.00,,,0.00,VWS V14.01,2013-05-07 11:00:00,
2013-05-07 06:05:00,49.5,46.7,30.02,WSW,237,0.0,0.0,90,0.00,,,0.00,VWS V14.01,2013-05-07 11:05:00,
2013-05-07 06:11:00,49.5,46.7,30.02,WSW,237,0.0,0.0,90,0.00,,,0.00,VWS V14.01,2013-05-07 11:11:00,
2013-05-07 06:16:00,49.4,46.6,30.02,WSW,237,0.0,0.0,90,0.00,,,0.00,VWS V14.01,2013-05-07 11:16:00,
2013-05-07 06:21:00,49.3,46.5,30.02,WSW,237,0.0,0.0,90,0.00,,,0.00,VWS V14.01,2013-05-07 11:21:00,
2013-05-07 06:26:00,49.2,46.4,30.02,WSW,237,0.0,0.0,90,0.00,,,0.00,VWS V14.01,2013-05-07 11:26:00,
2013-05-07 06:31:00,49.1,46.3,30.02,WSW,237,0.0,0.0,90,0.00,,,0.00,VWS V14.01,2013-05-07 11:31:00,
2013-05-07 06:36:00,49.0,46.2,30.02,WSW,237,0.0,0.0,90,0.00,,,0.00,VWS V14.01,2013-05-07 11:36:00,
2013-05-07 06:41:00,49.1,46.6,30.03,WSW,237,0.0,0.0,91,0.00,,,0.00,VWS V14.01,2013-05-07 11:41:00,
2013-05-07 06:46:00,49.1,46.6,30.03,WSW,237,0.0,0.0,91,0.00,,,0.00,VWS V14.01,2013-05-07 11:46:00,
2013-05-07 06:51:00,49.2,46.7,30.03,WSW,237,0.0,0.0,91,0.00,,,0.00,VWS V14.01,2013-05-07 11:51:00,
2013-05-07 06:56:00,49.2,46.7,30.03,WSW,237,0.0,0.0,91,0.00,,,0.00,VWS V14.01,2013-05-07 11:56:00,
2013-05-07 07:01:00,49.3,46.8,30.03,WSW,237,0.0,0.0,91,0.00,,,0.00,VWS V14.01,2013-05-07 12:01:00,
2013-05-07 07:07:00,49.2,46.7,30.03,WSW,237,0.0,0.0,91,0.00,,,0.00,VWS V14.01,2013-05-07 12:07:00,
2013-05-07 07:12:00,49.2,46.7,30.03,WSW,237,0.0,0.0,91,0.00,,,0.00,VWS V14.01,2013-05-07 12:12:00,
2013-05-07 07:17:00,49.4,47.2,30.03,WSW,237,0.0,0.0,92,0.00,,,0.00,VWS V14.01,2013-05-07 12:17:00,
2013-05-07 07:22:00,49.7,47.8,30.03,WSW,237,0.0,0.0,93,0.00,,,0.00,VWS V14.01,2013-05-07 12:22:00,
2013-05-07 07:27:00,50.1,48.2,30.03,WSW,237,0.0,0.0,93,0.00,,,0.00,VWS V14.01,2013-05-07 12:27:00,
2013-05-07 07:32:00,50.7,49.0,30.03,WSW,237,0.0,0.0,94,0.00,,,0.00,VWS V14.01,2013-05-07 12:32:00,
2013-05-07 07:37:00,51.3,49.3,30.03,WSW,237,0.0,0.0,93,0.00,,,0.00,VWS V14.01,2013-05-07 12:37:00,
2013-05-07 07:42:00,51.9,49.7,30.03,WSW,237,0.0,0.0,92,0.00,,,0.00,VWS V14.01,2013-05-07 12:42:00,
2013-05-07 07:47:00,52.6,50.0,30.03,WSW,237,0.0,0.0,91,0.00,,,0.00,VWS V14.01,2013-05-07 12:47:00,
2013-05-07 07:52:00,53.4,50.2,30.03,WSW,237,0.0,0.0,89,0.00,,,0.00,VWS V14.01,2013-05-07 12:52:00,
2013-05-07 07:57:00,54.2,50.4,30.03,WSW,237,0.0,0.0,87,0.00,,,0.00,VWS V14.01,2013-05-07 12:57:00,
2013-05-07 08:03:00,55.1,50.4,30.03,WSW,237,0.0,0.0,84,0.00,,,0.00,VWS V14.01,2013-05-07 13:03:00,
2013-05-07 08:08:00,55.8,50.4,30.04,WSW,237,0.0,0.0,82,0.00,,,0.00,VWS V14.01,2013-05-07 13:08:00,
2013-05-07 08:13:00,56.3,51.2,30.04,WSW,237,0.0,0.0,83,0.00,,,0.00,VWS V14.01,2013-05-07 13:13:00,
2013-05-07 08:18:00,56.9,51.1,30.04,WSW,237,0.0,0.0,81,0.00,,,0.00,VWS V14.01,2013-05-07 13:18:00,
2013-05-07 08:23:00,57.6,51.5,30.04,WSW,237,0.0,0.0,80,0.00,,,0.00,VWS V14.01,2013-05-07 13:23:00,
2013-05-07 08:28:00,58.4,51.9,30.04,WSW,237,0.0,0.0,79,0.00,,,0.00,VWS V14.01,2013-05-07 13:28:00,
2013-05-07 08:33:00,59.5,52.6,30.04,WSW,237,0.0,0.0,78,0.00,,,0.00,VWS V14.01,2013-05-07 13:33:00,
2013-05-07 08:38:00,60.5,51.8,30.04,WSW,237,0.0,0.0,73,0.00,,,0.00,VWS V14.01,2013-05-07 13:38:00,
2013-05-07 08:43:00,61.2,52.1,30.04,WSW,237,0.0,0.0,72,0.00,,,0.00,VWS V14.01,2013-05-07 13:43:00,
2013-05-07 08:48:00,62.1,52.6,30.04,WSW,237,0.0,0.0,71,0.00,,,0.00,VWS V14.01,2013-05-07 13:48:00,
2013-05-07 08:54:00,62.8,51.3,30.04,WSW,237,0.0,0.0,66,0.00,,,0.00,VWS V14.01,2013-05-07 13:54:00,
2013-05-07 08:59:00,63.1,51.6,30.04,WSW,237,0.0,1.0,66,0.00,,,0.00,VWS V14.01,2013-05-07 13:59:00,
2013-05-07 09:04:00,63.4,51.4,30.04,WSW,237,0.0,0.0,65,0.00,,,0.00,VWS V14.01,2013-05-07 14:04:00,
2013-05-07 09:09:00,63.9,51.9,30.04,WSW,237,0.0,0.0,65,0.00,,,0.00,VWS V14.01,2013-05-07 14:09:00,
2013-05-07 09:14:00,64.6,52.6,30.04,WSW,237,0.0,0.0,65,0.00,,,0.00,VWS V14.01,2013-05-07 14:14:00,
2013-05-07 09:19:00,65.3,51.5,30.04,WSW,237,0.0,0.0,61,0.00,,,0.00,VWS V14.01,2013-05-07 14:19:00,
2013-05-07 09:24:00,65.8,52.0,30.04,WSW,237,0.0,0.0,61,0.00,,,0.00,VWS V14.01,2013-05-07 14:24:00,
2013-05-07 09:29:00,66.4,53.0,30.04,WSW,237,0.0,0.0,62,0.00,,,0.00,VWS V14.01,2013-05-07 14:29:00,
2013-05-07 09:34:00,66.8,51.6,30.04,WSW,237,0.0,0.0,58,0.00,,,0.00,VWS V14.01,2013-05-07 14:34:00,
2013-05-07 09:39:00,67.2,52.4,30.03,WSW,237,0.0,0.0,59,0.00,,,0.00,VWS V14.01,2013-05-07 14:39:00,
2013-05-07 09:44:00,67.7,52.9,30.03,WSW,237,0.0,1.0,59,0.00,,,0.00,VWS V14.01,2013-05-07 14:44:00,
2013-05-07 09:50:00,68.6,52.3,30.03,WSW,237,0.0,1.0,56,0.00,,,0.00,VWS V14.01,2013-05-07 14:50:00,
2013-05-07 09:55:00,69.4,52.5,30.03,WSW,237,0.0,5.0,55,0.00,,,0.00,VWS V14.01,2013-05-07 14:55:00,
2013-05-07 10:00:00,69.1,51.3,30.03,WSW,237,0.0,5.0,53,0.00,,,0.00,VWS V14.01,2013-05-07 15:00:00,
2013-05-07 10:05:00,68.8,51.0,30.03,WSW,237,0.0,0.0,53,0.00,,,0.00,VWS V14.01,2013-05-07 15:05:00,
2013-05-07 10:10:00,69.0,51.2,30.03,WSW,237,0.0,1.0,53,0.00,,,0.00,VWS V14.01,2013-05-07 15:10:00,
2013-05-07 10:15:00,69.3,51.5,30.03,WSW,237,0.0,1.0,53,0.00,,,0.00,VWS V14.01,2013-05-07 15:15:00,
2013-05-07 10:20:00,69.8,52.4,30.03,WSW,237,0.0,1.0,54,0.00,,,0.00,VWS V14.01,2013-05-07 15:20:00,
2013-05-07 10:25:00,70.2,50.7,30.03,WSW,237,0.0,1.0,50,0.00,,,0.00,VWS V14.01,2013-05-07 15:25:00,
2013-05-07 10:30:00,70.3,50.3,30.03,WSW,237,0.0,1.0,49,0.00,,,0.00,VWS V14.01,2013-05-07 15:30:00,
2013-05-07 10:35:00,70.4,51.4,30.03,WSW,237,0.0,1.0,51,0.00,,,0.00,VWS V14.01,2013-05-07 15:35:00,
2013-05-07 10:40:00,70.8,52.3,30.03,WSW,237,0.0,1.0,52,0.00,,,0.00,VWS V14.01,2013-05-07 15:40:00,
2013-05-07 10:46:00,71.3,50.6,30.03,WSW,237,0.0,1.0,48,0.00,,,0.00,VWS V14.01,2013-05-07 15:46:00,
2013-05-07 10:51:00,71.6,50.9,30.02,WSW,237,0.0,2.0,48,0.00,,,0.00,VWS V14.01,2013-05-07 15:51:00,
2013-05-07 10:56:00,71.9,51.7,30.02,East,101,0.0,3.0,49,0.00,,,0.00,VWS V14.01,2013-05-07 15:56:00,
2013-05-07 11:01:00,72.5,51.2,30.02,ESE,102,0.0,3.0,47,0.00,,,0.00,VWS V14.01,2013-05-07 16:01:00,
2013-05-07 11:06:00,73.1,51.1,30.02,ESE,104,0.0,2.0,46,0.00,,,0.00,VWS V14.01,2013-05-07 16:06:00,
2013-05-07 11:11:00,73.0,50.4,30.02,NE,34,0.0,4.0,45,0.00,,,0.00,VWS V14.01,2013-05-07 16:11:00,
2013-05-07 11:16:00,73.0,51.0,30.02,NE,34,0.0,4.0,46,0.00,,,0.00,VWS V14.01,2013-05-07 16:16:00,
2013-05-07 11:21:00,73.0,51.0,30.02,NE,41,0.0,4.0,46,0.00,,,0.00,VWS V14.01,2013-05-07 16:21:00,
2013-05-07 11:26:00,73.3,51.3,30.02,NE,39,0.0,4.0,46,0.00,,,0.00,VWS V14.01,2013-05-07 16:26:00,
2013-05-07 11:31:00,74.1,50.8,30.02,ENE,58,0.0,4.0,44,0.00,,,0.00,VWS V14.01,2013-05-07 16:31:00,
2013-05-07 11:37:00,75.0,51.6,30.02,NNE,13,0.0,1.0,44,0.00,,,0.00,VWS V14.01,2013-05-07 16:37:00,
2013-05-07 11:42:00,76.1,52.0,30.01,NNE,23,0.0,1.0,43,0.00,,,0.00,VWS V14.01,2013-05-07 16:42:00,
2013-05-07 11:47:00,75.8,49.8,30.02,East,82,0.0,9.0,40,0.00,,,0.00,VWS V14.01,2013-05-07 16:47:00,
2013-05-07 11:52:00,75.4,50.1,30.01,East,100,0.0,9.0,41,0.00,,,0.00,VWS V14.01,2013-05-07 16:52:00,
2013-05-07 11:57:00,75.1,47.8,30.01,ESE,109,0.0,9.0,38,0.00,,,0.00,VWS V14.01,2013-05-07 16:57:00,
2013-05-07 12:02:00,75.1,49.8,30.01,East,100,1.0,9.0,41,0.00,,,0.00,VWS V14.01,2013-05-07 17:02:00,
2013-05-07 12:07:00,75.5,49.5,30.01,SW,228,0.0,2.0,40,0.00,,,0.00,VWS V14.01,2013-05-07 17:07:00,
2013-05-07 12:12:00,76.3,49.5,30.01,SW,227,0.0,2.0,39,0.00,,,0.00,VWS V14.01,2013-05-07 17:12:00,
2013-05-07 12:17:00,77.3,51.1,30.01,SW,227,0.0,2.0,40,0.00,,,0.00,VWS V14.01,2013-05-07 17:17:00,
2013-05-07 12:22:00,78.0,48.2,30.00,SW,227,0.0,3.0,35,0.00,,,0.00,VWS V14.01,2013-05-07 17:22:00,
2013-05-07 12:27:00,77.8,48.7,30.00,SW,227,0.0,3.0,36,0.00,,,0.00,VWS V14.01,2013-05-07 17:27:00,
2013-05-07 12:33:00,77.9,48.8,30.00,SW,232,0.0,0.0,36,0.00,,,0.00,VWS V14.01,2013-05-07 17:33:00,
2013-05-07 12:38:00,78.1,47.5,30.00,WSW,243,3.0,8.0,34,0.00,,,0.00,VWS V14.01,2013-05-07 17:38:00,
2013-05-07 12:43:00,78.1,45.9,30.00,SW,234,0.0,8.0,32,0.00,,,0.00,VWS V14.01,2013-05-07 17:43:00,
2013-05-07 12:48:00,77.7,47.1,30.00,WSW,240,0.0,8.0,34,0.00,,,0.00,VWS V14.01,2013-05-07 17:48:00,
2013-05-07 12:53:00,77.1,48.1,30.00,ESE,121,0.0,8.0,36,0.00,,,0.00,VWS V14.01,2013-05-07 17:53:00,
2013-05-07 12:58:00,76.4,46.8,30.00,SSE,164,0.0,8.0,35,0.00,,,0.00,VWS V14.01,2013-05-07 17:58:00,
2013-05-07 13:03:00,75.8,47.0,30.00,SW,231,3.0,4.0,36,0.00,,,0.00,VWS V14.01,2013-05-07 18:03:00,
2013-05-07 13:08:00,75.3,48.0,29.99,SW,232,0.0,4.0,38,0.00,,,0.00,VWS V14.01,2013-05-07 18:08:00,
2013-05-07 13:13:00,75.7,48.3,29.99,SW,231,0.0,4.0,38,0.00,,,0.00,VWS V14.01,2013-05-07 18:13:00,
2013-05-07 13:18:00,76.2,48.0,29.99,East,90,0.0,4.0,37,0.00,,,0.00,VWS V14.01,2013-05-07 18:18:00,
2013-05-07 13:23:00,76.5,48.3,29.99,East,90,0.0,4.0,37,0.00,,,0.00,VWS V14.01,2013-05-07 18:23:00,
2013-05-07 13:29:00,77.3,49.0,29.99,ESE,115,0.0,4.0,37,0.00,,,0.00,VWS V14.01,2013-05-07 18:29:00,
2013-05-07 13:34:00,77.2,45.9,29.99,NW,312,0.0,1.0,33,0.00,,,0.00,VWS V14.01,2013-05-07 18:34:00,
2013-05-07 13:39:00,76.4,45.2,29.99,SE,136,0.0,5.0,33,0.00,,,0.00,VWS V14.01,2013-05-07 18:39:00,
2013-05-07 13:44:00,75.3,46.5,29.99,East,92,0.0,6.0,36,0.00,,,0.00,VWS V14.01,2013-05-07 18:44:00,
2013-05-07 13:49:00,74.4,46.5,29.99,East,92,0.0,6.0,37,0.00,,,0.00,VWS V14.01,2013-05-07 18:49:00,
2013-05-07 13:54:00,73.9,45.3,29.99,East,92,0.0,6.0,36,0.00,,,0.00,VWS V14.01,2013-05-07 18:54:00,
2013-05-07 13:59:00,74.2,48.3,29.98,SW,234,0.0,6.0,40,0.00,,,0.00,VWS V14.01,2013-05-07 18:59:00,
2013-05-07 14:04:00,75.0,47.0,29.98,SW,235,0.0,0.0,37,0.00,,,0.00,VWS V14.01,2013-05-07 19:04:00,
2013-05-07 14:09:00,76.0,47.9,29.98,SW,233,0.0,3.0,37,0.00,,,0.00,VWS V14.01,2013-05-07 19:09:00,
2013-05-07 14:14:00,76.2,47.3,29.98,ESE,109,2.0,4.0,36,0.00,,,0.00,VWS V14.01,2013-05-07 19:14:00,
2013-05-07 14:19:00,75.9,47.1,29.98,East,79,0.0,6.0,36,0.00,,,0.00,VWS V14.01,2013-05-07 19:19:00,
2013-05-07 14:25:00,75.4,47.3,29.98,ESE,123,0.0,7.0,37,0.00,,,0.00,VWS V14.01,2013-05-07 19:25:00,
2013-05-07 14:30:00,75.5,46.0,29.98,ENE,73,0.0,7.0,35,0.00,,,0.00,VWS V14.01,2013-05-07 19:30:00,
2013-05-07 14:35:00,76.3,47.4,29.97,West,272,6.0,8.0,36,0.00,,,0.00,VWS V14.01,2013-05-07 19:35:00,
2013-05-07 14:40:00,77.6,47.8,29.97,West,261,7.0,9.0,35,0.00,,,0.00,VWS V14.01,2013-05-07 19:40:00,
2013-05-07 14:45:00,78.4,47.0,29.97,WSW,249,0.0,9.0,33,0.00,,,0.00,VWS V14.01,2013-05-07 19:45:00,
2013-05-07 14:50:00,78.9,46.6,29.97,West,259,6.0,9.0,32,0.00,,,0.00,VWS V14.01,2013-05-07 19:50:00,
2013-05-07 14:55:00,79.4,47.0,29.97,SW,227,0.0,9.0,32,0.00,,,0.00,VWS V14.01,2013-05-07 19:55:00,
2013-05-07 15:00:00,79.8,46.5,29.97,WSW,239,2.0,9.0,31,0.00,,,0.00,VWS V14.01,2013-05-07 20:00:00,
2013-05-07 15:05:00,80.0,46.7,29.97,WSW,249,0.0,4.0,31,0.00,,,0.00,VWS V14.01,2013-05-07 20:05:00,
2013-05-07 15:10:00,79.7,47.3,29.97,WSW,237,0.0,7.0,32,0.00,,,0.00,VWS V14.01,2013-05-07 20:10:00,
2013-05-07 15:15:00,78.7,45.6,29.97,SW,234,0.0,7.0,31,0.00,,,0.00,VWS V14.01,2013-05-07 20:15:00,
2013-05-07 15:21:00,77.1,46.6,29.96,ESE,104,1.0,7.0,34,0.00,,,0.00,VWS V14.01,2013-05-07 20:21:00,
2013-05-07 15:26:00,75.8,47.0,29.96,ESE,104,0.0,7.0,36,0.00,,,0.00,VWS V14.01,2013-05-07 20:26:00,
2013-05-07 15:31:00,75.3,45.8,29.96,ESE,104,0.0,7.0,35,0.00,,,0.00,VWS V14.01,2013-05-07 20:31:00,
2013-05-07 15:36:00,75.6,46.0,29.96,ESE,104,0.0,0.0,35,0.00,,,0.00,VWS V14.01,2013-05-07 20:36:00,
2013-05-07 15:41:00,76.0,47.2,29.96,ESE,104,0.0,0.0,36,0.00,,,0.00,VWS V14.01,2013-05-07 20:41:00,
2013-05-07 15:46:00,76.6,46.9,29.95,WSW,242,4.0,4.0,35,0.00,,,0.00,VWS V14.01,2013-05-07 20:46:00,
2013-05-07 15:51:00,77.1,46.6,29.95,WSW,243,0.0,7.0,34,0.00,,,0.00,VWS V14.01,2013-05-07 20:51:00,
2013-05-07 15:56:00,76.6,46.2,29.95,WSW,244,0.0,7.0,34,0.00,,,0.00,VWS V14.01,2013-05-07 20:56:00,
2013-05-07 16:01:00,76.1,45.7,29.95,East,93,0.0,7.0,34,0.00,,,0.00,VWS V14.01,2013-05-07 21:01:00,
2013-05-07 16:06:00,75.8,45.5,29.95,ESE,106,4.0,7.0,34,0.00,,,0.00,VWS V14.01,2013-05-07 21:06:00,
2013-05-07 16:11:00,75.2,45.7,29.95,East,88,0.0,7.0,35,0.00,,,0.00,VWS V14.01,2013-05-07 21:11:00,
2013-05-07 16:17:00,74.5,45.1,29.95,South,177,0.0,7.0,35,0.00,,,0.00,VWS V14.01,2013-05-07 21:17:00,
2013-05-07 16:22:00,74.2,46.3,29.95,East,96,1.0,7.0,37,0.00,,,0.00,VWS V14.01,2013-05-07 21:22:00,
2013-05-07 16:27:00,74.6,45.9,29.94,SE,128,0.0,7.0,36,0.00,,,0.00,VWS V14.01,2013-05-07 21:27:00,
2013-05-07 16:32:00,74.6,45.9,29.94,ESE,123,0.0,7.0,36,0.00,,,0.00,VWS V14.01,2013-05-07 21:32:00,
2013-05-07 16:37:00,74.5,45.8,29.94,ESE,103,2.0,2.0,36,0.00,,,0.00,VWS V14.01,2013-05-07 21:37:00,
2013-05-07 16:42:00,74.7,46.0,29.94,North,4,0.0,7.0,36,0.00,,,0.00,VWS V14.01,2013-05-07 21:42:00,
2013-05-07 16:47:00,75.3,46.5,29.94,East,81,0.0,7.0,36,0.00,,,0.00,VWS V14.01,2013-05-07 21:47:00,
2013-05-07 16:52:00,75.7,46.9,29.94,East,81,0.0,7.0,36,0.00,,,0.00,VWS V14.01,2013-05-07 21:52:00,
2013-05-07 16:57:00,76.2,46.6,29.94,SW,219,0.0,7.0,35,0.00,,,0.00,VWS V14.01,2013-05-07 21:57:00,
2013-05-07 17:02:00,76.9,47.2,29.94,SW,226,0.0,1.0,35,0.00,,,0.00,VWS V14.01,2013-05-07 22:02:00,
2013-05-07 17:08:00,77.3,47.5,29.94,ESE,118,0.0,1.0,35,0.00,,,0.00,VWS V14.01,2013-05-07 22:08:00,
2013-05-07 17:13:00,77.2,46.7,29.94,SE,127,0.0,4.0,34,0.00,,,0.00,VWS V14.01,2013-05-07 22:13:00,
2013-05-07 17:18:00,76.6,46.2,29.94,East,92,0.0,7.0,34,0.00,,,0.00,VWS V14.01,2013-05-07 22:18:00,
2013-05-07 17:23:00,76.0,46.4,29.94,SSE,149,0.0,7.0,35,0.00,,,0.00,VWS V14.01,2013-05-07 22:23:00,
2013-05-07 17:28:00,75.2,46.4,29.94,South,177,0.0,7.0,36,0.00,,,0.00,VWS V14.01,2013-05-07 22:28:00,
2013-05-07 17:33:00,74.6,45.9,29.93,South,184,0.0,0.0,36,0.00,,,0.00,VWS V14.01,2013-05-07 22:33:00,
2013-05-07 17:38:00,74.3,47.1,29.94,SW,218,0.0,3.0,38,0.00,,,0.00,VWS V14.01,2013-05-07 22:38:00,
2013-05-07 17:43:00,74.3,46.4,29.93,SW,218,0.0,3.0,37,0.00,,,0.00,VWS V14.01,2013-05-07 22:43:00,
2013-05-07 17:48:00,74.5,47.2,29.93,SW,218,0.0,3.0,38,0.00,,,0.00,VWS V14.01,2013-05-07 22:48:00,
2013-05-07 17:53:00,74.7,46.7,29.93,SW,224,0.0,5.0,37,0.00,,,0.00,VWS V14.01,2013-05-07 22:53:00,
2013-05-07 17:58:00,74.9,46.9,29.93,SW,224,2.0,5.0,37,0.00,,,0.00,VWS V14.01,2013-05-07 22:58:00,
2013-05-07 18:03:00,75.0,47.0,29.93,SSW,192,0.0,1.0,37,0.00,,,0.00,VWS V14.01,2013-05-07 23:03:00,
2013-05-07 18:09:00,74.8,46.8,29.93,SW,214,0.0,4.0,37,0.00,,,0.00,VWS V14.01,2013-05-07 23:09:00,
2013-05-07 18:14:00,74.5,47.2,29.93,SW,218,0.0,4.0,38,0.00,,,0.00,VWS V14.01,2013-05-07 23:14:00,
2013-05-07 18:19:00,74.3,47.1,29.93,SW,218,0.0,4.0,38,0.00,,,0.00,VWS V14.01,2013-05-07 23:19:00,
2013-05-07 18:24:00,74.1,48.3,29.93,SW,236,0.0,4.0,40,0.00,,,0.00,VWS V14.01,2013-05-07 23:24:00,
2013-05-07 18:29:00,74.1,47.6,29.93,SW,236,0.0,4.0,39,0.00,,,0.00,VWS V14.01,2013-05-07 23:29:00,
2013-05-07 18:34:00,74.2,47.7,29.93,SW,236,0.0,0.0,39,0.00,,,0.00,VWS V14.01,2013-05-07 23:34:00,
2013-05-07 18:39:00,74.2,47.0,29.93,SW,236,0.0,1.0,38,0.00,,,0.00,VWS V14.01,2013-05-07 23:39:00,
2013-05-07 18:44:00,74.2,47.0,29.93,SW,236,0.0,1.0,38,0.00,,,0.00,VWS V14.01,2013-05-07 23:44:00,
2013-05-07 18:49:00,74.1,47.6,29.93,SW,236,0.0,1.0,39,0.00,,,0.00,VWS V14.01,2013-05-07 23:49:00,
2013-05-07 18:54:00,73.8,47.3,29.93,SW,236,0.0,1.0,39,0.00,,,0.00,VWS V14.01,2013-05-07 23:54:00,
2013-05-07 18:59:00,73.5,47.7,29.93,SW,236,0.0,1.0,40,0.00,,,0.00,VWS V14.01,2013-05-07 23:59:00,
2013-05-07 19:04:00,73.2,47.5,29.93,SW,236,0.0,0.0,40,0.00,,,0.00,VWS V14.01,2013-05-08 00:04:00,
2013-05-07 19:10:00,73.0,47.3,29.93,SW,236,0.0,0.0,40,0.00,,,0.00,VWS V14.01,2013-05-08 00:10:00,
2013-05-07 19:15:00,72.8,47.8,29.93,SW,236,0.0,0.0,41,0.00,,,0.00,VWS V14.01,2013-05-08 00:15:00,
2013-05-07 19:20:00,72.6,47.6,29.93,SW,236,0.0,0.0,41,0.00,,,0.00,VWS V14.01,2013-05-08 00:20:00,
2013-05-07 19:25:00,72.5,47.5,29.93,SW,236,0.0,0.0,41,0.00,,,0.00,VWS V14.01,2013-05-08 00:25:00,
2013-05-07 19:30:00,72.3,48.0,29.93,SW,236,0.0,0.0,42,0.00,,,0.00,VWS V14.01,2013-05-08 00:30:00,
2013-05-07 19:35:00,72.1,47.1,29.93,ESE,123,0.0,1.0,41,0.00,,,0.00,VWS V14.01,2013-05-08 00:35:00,
2013-05-07 19:40:00,72.1,47.8,29.93,SE,130,0.0,1.0,42,0.00,,,0.00,VWS V14.01,2013-05-08 00:40:00,
2013-05-07 19:45:00,71.8,48.1,29.93,SE,130,0.0,1.0,43,0.00,,,0.00,VWS V14.01,2013-05-08 00:45:00,
2013-05-07 19:50:00,71.5,47.8,29.93,SE,130,0.0,1.0,43,0.00,,,0.00,VWS V14.01,2013-05-08 00:50:00,
2013-05-07 19:55:00,71.3,48.3,29.93,SE,131,0.0,1.0,44,0.00,,,0.00,VWS V14.01,2013-05-08 00:55:00,
2013-05-07 20:00:00,71.0,47.4,29.93,SE,130,0.0,1.0,43,0.00,,,0.00,VWS V14.01,2013-05-08 01:00:00,
2013-05-07 20:06:00,70.8,47.8,29.93,SE,131,0.0,0.0,44,0.00,,,0.00,VWS V14.01,2013-05-08 01:06:00,
2013-05-07 20:11:00,70.5,47.6,29.92,SE,130,0.0,1.0,44,0.00,,,0.00,VWS V14.01,2013-05-08 01:11:00,
2013-05-07 20:16:00,70.2,47.9,29.93,SE,130,0.0,1.0,45,0.00,,,0.00,VWS V14.01,2013-05-08 01:16:00,
2013-05-07 20:21:00,69.9,48.2,29.92,SE,130,0.0,1.0,46,0.00,,,0.00,VWS V14.01,2013-05-08 01:21:00,
2013-05-07 20:26:00,69.6,47.9,29.92,SE,130,0.0,1.0,46,0.00,,,0.00,VWS V14.01,2013-05-08 01:26:00,
2013-05-07 20:31:00,69.3,47.7,29.93,SE,130,0.0,1.0,46,0.00,,,0.00,VWS V14.01,2013-05-08 01:31:00,
2013-05-07 20:36:00,69.0,48.0,29.92,SE,130,0.0,0.0,47,0.00,,,0.00,VWS V14.01,2013-05-08 01:36:00,
2013-05-07 20:41:00,68.5,48.1,29.92,SE,130,0.0,0.0,48,0.00,,,0.00,VWS V14.01,2013-05-08 01:41:00,
2013-05-07 20:46:00,68.1,47.7,29.93,SE,130,0.0,0.0,48,0.00,,,0.00,VWS V14.01,2013-05-08 01:46:00,
2013-05-07 20:51:00,67.6,47.8,29.92,SE,130,0.0,0.0,49,0.00,,,0.00,VWS V14.01,2013-05-08 01:51:00,
2013-05-07 20:56:00,67.1,47.9,29.93,SE,130,0.0,0.0,50,0.00,,,0.00,VWS V14.01,2013-05-08 01:56:00,
2013-05-07 21:02:00,66.7,47.5,29.93,SE,130,0.0,0.0,50,0.00,,,0.00,VWS V14.01,2013-05-08 02:02:00,
2013-05-07 21:07:00,66.3,47.7,29.93,SE,130,0.0,0.0,51,0.00,,,0.00,VWS V14.01,2013-05-08 02:07:00,
2013-05-07 21:12:00,65.9,47.3,29.93,SE,130,0.0,0.0,51,0.00,,,0.00,VWS V14.01,2013-05-08 02:12:00,
2013-05-07 21:17:00,65.6,47.5,29.93,SE,130,0.0,0.0,52,0.00,,,0.00,VWS V14.01,2013-05-08 02:17:00,
2013-05-07 21:22:00,65.4,47.3,29.93,SE,130,0.0,0.0,52,0.00,,,0.00,VWS V14.01,2013-05-08 02:22:00,
2013-05-07 21:27:00,65.2,47.2,29.93,SE,130,0.0,0.0,52,0.00,,,0.00,VWS V14.01,2013-05-08 02:27:00,
2013-05-07 21:32:00,65.0,47.5,29.93,SE,130,0.0,0.0,53,0.00,,,0.00,VWS V14.01,2013-05-08 02:32:00,
2013-05-07 21:37:00,64.7,47.7,29.94,SE,130,0.0,0.0,54,0.00,,,0.00,VWS V14.01,2013-05-08 02:37:00,
2013-05-07 21:42:00,64.4,47.4,29.93,SE,130,0.0,0.0,54,0.00,,,0.00,VWS V14.01,2013-05-08 02:42:00,
2013-05-07 21:47:00,64.2,47.2,29.94,SE,130,0.0,0.0,54,0.00,,,0.00,VWS V14.01,2013-05-08 02:47:00,
2013-05-07 21:53:00,64.0,47.5,29.94,SE,130,0.0,0.0,55,0.00,,,0.00,VWS V14.01,2013-05-08 02:53:00,
2013-05-07 21:58:00,63.8,47.3,29.94,SE,130,0.0,0.0,55,0.00,,,0.00,VWS V14.01,2013-05-08 02:58:00,
2013-05-07 22:03:00,63.4,47.5,29.94,SE,130,0.0,0.0,56,0.00,,,0.00,VWS V14.01,2013-05-08 03:03:00,
2013-05-07 22:08:00,63.2,47.3,29.94,SE,130,0.0,0.0,56,0.00,,,0.00,VWS V14.01,2013-05-08 03:08:00,
2013-05-07 22:13:00,62.9,47.5,29.94,SE,130,0.0,0.0,57,0.00,,,0.00,VWS V14.01,2013-05-08 03:13:00,
2013-05-07 22:18:00,62.7,47.3,29.94,SE,130,0.0,0.0,57,0.00,,,0.00,VWS V14.01,2013-05-08 03:18:00,
2013-05-07 22:23:00,62.4,47.5,29.94,SE,130,0.0,1.0,58,0.00,,,0.00,VWS V14.01,2013-05-08 03:23:00,
2013-05-07 22:28:00,62.2,47.3,29.94,SE,131,0.0,1.0,58,0.00,,,0.00,VWS V14.01,2013-05-08 03:28:00,
2013-05-07 22:33:00,62.0,47.5,29.94,SE,131,0.0,0.0,59,0.00,,,0.00,VWS V14.01,2013-05-08 03:33:00,
2013-05-07 22:38:00,61.8,47.3,29.94,SE,130,0.0,0.0,59,0.00,,,0.00,VWS V14.01,2013-05-08 03:38:00,
2013-05-07 22:43:00,61.7,47.7,29.94,SE,131,0.0,0.0,60,0.00,,,0.00,VWS V14.01,2013-05-08 03:43:00,
2013-05-07 22:49:00,61.6,47.6,29.94,SE,130,0.0,0.0,60,0.00,,,0.00,VWS V14.01,2013-05-08 03:49:00,
2013-05-07 22:54:00,61.4,47.8,29.94,SE,130,0.0,0.0,61,0.00,,,0.00,VWS V14.01,2013-05-08 03:54:00,
2013-05-07 22:59:00,61.3,47.8,29.94,SE,130,0.0,0.0,61,0.00,,,0.00,VWS V14.01,2013-05-08 03:59:00,
2013-05-07 23:01:00,61.3,47.8,29.94,SE,131,0.0,0.0,61,0.00,,,0.00,VWS V14.01,2013-05-08 04:01:00,
2013-05-07 23:02:00,61.2,47.7,29.94,SE,130,0.0,0.0,61,0.00,,,0.00,VWS V14.01,2013-05-08 04:02:00,
2013-05-07 23:07:00,61.3,47.8,29.94,SE,130,0.0,0.0,61,0.00,,,0.00,VWS V14.01,2013-05-08 04:07:00,
2013-05-07 23:12:00,61.2,47.7,29.94,SE,130,0.0,0.0,61,0.00,,,0.00,VWS V14.01,2013-05-08 04:12:00,
2013-05-07 23:17:00,61.0,47.9,29.94,SE,130,0.0,0.0,62,0.00,,,0.00,VWS V14.01,2013-05-08 04:17:00,
2013-05-07 23:22:00,60.8,47.7,29.94,SE,130,0.0,0.0,62,0.00,,,0.00,VWS V14.01,2013-05-08 04:22:00,
2013-05-07 23:27:00,60.6,48.0,29.94,SE,130,0.0,0.0,63,0.00,,,0.00,VWS V14.01,2013-05-08 04:27:00,
2013-05-07 23:33:00,60.5,47.9,29.94,SE,130,0.0,0.0,63,0.00,,,0.00,VWS V14.01,2013-05-08 04:33:00,
2013-05-07 23:38:00,60.3,48.1,29.94,SE,130,0.0,0.0,64,0.00,,,0.00,VWS V14.01,2013-05-08 04:38:00,
2013-05-07 23:43:00,60.2,48.0,29.94,SE,130,0.0,0.0,64,0.00,,,0.00,VWS V14.01,2013-05-08 04:43:00,
2013-05-07 23:48:00,60.0,47.8,29.94,SE,130,0.0,0.0,64,0.00,,,0.00,VWS V14.01,2013-05-08 04:48:00,
2013-05-07 23:53:00,59.8,48.0,29.93,SE,130,0.0,0.0,65,0.00,,,0.00,VWS V14.01,2013-05-08 04:53:00,
2013-05-07 23:58:00,59.6,47.8,29.93,SE,130,0.0,0.0,65,0.00,,,0.00,VWS V14.01,2013-05-08 04:58:00,